Hourly Data Report for October 04, 2017

All times are specified in Local Standard Time (LST). Add 1 hour to adjust for Daylight Saving Time where and when it is observed.

AGASSIZ RCS
BRITISH COLUMBIA

49°14'35.000" N
121°45'37.000" W
19.30 m
1100119
71113
WZA

Download Data

Hourly Data (October 2017)
Hourly Data Report for October 4, 2017
Temp Definition
°C
Dew Point Temp Definition
°C
Rel Hum Definition
%
Wind Dir Definition
10's deg

Wind Spd Definition
km/h
Visibility Definition
km
Stn Press Definition
kPa
Hmdx Definition


Wind Chill Definition


Weather Definition


TIME
00:00 13.9 -0.8 36 36 16   102.10     LegendNANA
01:00 13.7 -2.2 33 1 13   102.12     LegendNANA
02:00 13.4 -1.6 35 32 13   102.10     LegendNANA
03:00 12.6 -2.4 35 2 14   102.09     LegendNANA
04:00 12.6 -0.8 40 31 19   102.04     LegendNANA
05:00 12.1 -3.1 35 1 17   102.04     LegendNANA
06:00 11.4 -1.7 40 4 20   102.02     LegendNANA
07:00 11.6 -3.4 35 32 12   102.01     LegendNANA
08:00 12.7 -3.2 33 31 21   101.98     LegendNANA
09:00 12.9 -2.7 34 30 22   101.98     LegendNANA
10:00 13.8 -1.9 34 31 18   101.96     LegendNANA
11:00 15.5 -1.3 32 36 14   101.93     LegendNANA
12:00 17.7 0.6 32 12 11   101.86     LegendNANA
13:00 19.4 -0.1 27 34 6   101.83     LegendNANA
14:00 20.0 1.4 29 29 6   101.81     LegendNANA
15:00 20.3 2.0 30 26 4   101.82     LegendNANA
16:00 19.6 2.1 31 25 5   101.80     LegendNANA
17:00 18.8 1.7 32   0   101.81     LegendNANA
18:00 12.3 7.6 73 2 2   101.84     LegendNANA
19:00 9.6 6.7 82   0   101.85     LegendNANA
20:00 8.2 5.9 86 27 2   101.88     LegendNANA
21:00 14.0 3.1 48 3 18   101.88     LegendNANA
22:00 10.5 5.4 71 29 3   101.92     LegendNANA
23:00 10.0 3.8 65 22 4   101.94     LegendNANA

Notes on Data Quality.

Legend

  • E = Estimated
  • M = Missing
  • NA = Not Available
  • ‡ = Partner data that is not subject to review by the National Climate Archives
Date modified: